Dewpoint
-14 -6 2 6 8 9 10 11 12 11 10 9 8 8 8 11 12 11 11 11 12 9 8 10 10 11 11 12 12 12 12 11 10
-13 -12 -3 3 6 8 11 11 11 11 11 10 10 9 9 12 12 12 10 10 10 10 8 9 8 9 10 11 12 12 12 12 12
-6 4 -7 -1 3 7 10 11 11 11 11 10 9 9 10 12 12 12 10 8 6 10 10 9 9 8 8 10 11 12 13 13 12
-9 2 3 9 9 9 10 10 11 11 11 11 9 9 11 11 11 11 12 10 5 7 10 10 11 10 9 8 8 10 12 12 13
-8 -8 -8 -2 4 9 11 10 11 11 11 11 10 11 12 11 11 11 11 8 10 9 9 10 11 11 11 11 10 8 9 11 12
-7 -6 -6 -2 2 2 6 8 9 11 11 10 10 11 11 11 10 11 10 10 10 10 11 11 11 11 11 11 11 10 10 10 11
-3 -3 -2 -2 -1 -1 -1 -0 1 10 10 10 11 11 10 10 10 11 10 11 11 10 9 10 11 11 10 10 11 11 11 11 10
-1 -1 -2 -2 -1 1 6 8 8 9 9 10 10 10 10 10 10 10 9 10 10 11 11 9 9 10 10 10 11 11 11 11 9
1 0 0 1 2 4 4 6 9 9 9 9 9 9 9 10 10 10 10 10 10 10 10 10 9 10 11 11 11 11 9 8 7
1 1 2 3 3 4 6 7 8 8 7 6 8 8 8 9 9 9 10 10 10 10 11 10 10 11 11 11 11 9 8 7 7
1 1 1 1 2 2 3 5 6 3 4 5 7 7 8 8 8 8 8 9 9 9 10 10 10 10 11 11 10 10 9 8 7
0 -0 -1 0 1 0 1 3 3 3 2 3 4 5 7 8 8 8 8 8 8 8 9 9 9 10 10 10 10 9 9 9 8
-3 -8 -9 -10 -9 -8 -7 -5 -4 -2 -3 -1 1 1 3 4 4 5 6 7 7 7 8 7 8 8 9 8 9 9 9 9 8
-9 -10 -10 -10 -9 -9 -5 -0 -3 -4 -3 -4 -3 -4 -4 -3 -1 0 2 4 5 6 6 7 8 7 8 9 8 8 8 8 8
-9 -9 -9 -9 -10 -10 -9 -6 -3 -4 -3 -6 -5 -5 -5 -4 -4 -4 -1 0 0 1 3 5 6 6 6 6 7 8 8 8 8
-9 -9 -9 -9 -10 -9 -9 -9 -7 -7 -4 -5 -3 -3 -3 -4 -5 -4 -4 -3 -1 -0 2 2 2 3 4 5 5 7 7 8 8
-9 -9 -9 -9 -8 -8 -8 -8 -8 -8 -6 1 2 3 3 2 -5 -8 -8 -8 -6 -4 -2 -1 1 1 2 3 5 6 6 6 7
-9 -9 -8 -8 -7 -7 -7 -7 -7 -7 -7 -5 -1 -1 1 1 -0 -2 -8 -9 -10 -10 -9 -5 -2 1 2 2 2 4 4 6 5
-9 -9 -9 -8 -7 -6 -6 -6 -6 -5 -6 -6 -6 -3 -1 -3 0 0 -2 -4 -10 -12 -13 -13 -12 -10 -6 -1 2 3 4 4 4
-9 -10 -9 -9 -8 -7 -6 -5 -5 -5 -4 -4 -4 -4 -5 -6 -4 -1 -1 -3 -5 -7 -12 -13 -13 -13 -12 -11 -8 -1 2 3 3
Wind_Speed
10 11 11 10 9 6 4 3 3 3 2 2 2 4 6 8 5 3 3 3 4 2 0 2 0 2 3 2 1 1 1 2 2
8 9 9 10 9 7 5 4 2 3 1 1 2 3 7 8 5 3 1 2 3 1 1 1 1 1 2 3 2 3 3 3 3
8 5 10 9 8 7 5 4 5 3 1 1 2 4 7 5 3 3 3 3 2 2 2 2 2 2 2 3 3 4 5 6 6
7 6 7 7 7 8 8 8 6 5 3 1 3 5 7 5 2 1 3 5 1 1 2 2 3 3 5 4 3 4 6 6 6
7 6 5 8 7 8 5 6 8 7 4 2 4 9 7 2 4 3 3 2 4 1 0 1 2 2 3 4 4 5 7 8 7
4 4 4 6 6 6 4 4 3 6 5 4 6 8 6 6 4 3 2 3 2 2 1 1 1 1 2 4 6 7 7 9 9
4 5 5 5 4 4 4 5 7 5 3 4 7 7 6 6 7 5 1 3 3 3 1 2 2 3 4 5 6 6 7 10 10
6 5 6 7 6 6 5 6 5 5 9 8 8 9 8 8 6 2 1 4 4 3 2 1 1 2 4 4 3 3 2 1 1
7 6 7 7 8 7 5 6 8 8 7 7 7 8 9 8 8 7 4 2 2 3 4 2 1 1 1 0 2 2 1 3 8
8 8 8 9 9 9 9 8 7 6 5 3 7 8 7 7 7 5 4 4 1 1 6 5 3 3 1 1 3 4 4 3 8
9 10 10 9 9 9 8 10 6 3 4 4 5 3 5 3 2 2 3 2 1 0 1 4 5 3 2 3 1 4 6 10 11
11 11 11 12 12 11 11 10 7 5 6 6 4 4 5 6 5 4 3 5 2 2 3 3 2 4 8 3 2 7 10 10 9
13 12 12 12 13 12 12 10 10 8 8 8 7 6 6 5 3 1 2 3 3 2 1 2 3 4 6 5 4 4 7 7 9
14 13 12 12 11 12 13 12 9 11 10 9 8 8 8 7 6 5 4 3 2 3 3 4 4 4 5 5 5 5 7 8 12
15 13 13 12 12 12 12 12 12 12 9 9 8 7 6 6 5 5 4 4 2 2 2 4 5 5 5 2 4 5 7 7 8
15 14 13 13 13 12 12 12 11 11 10 8 8 7 5 3 3 3 3 3 3 3 2 0 1 4 5 3 4 5 3 6 9
17 16 15 15 14 13 12 12 11 10 10 8 5 5 2 2 3 3 2 2 2 2 2 2 2 1 2 3 3 5 3 2 2
19 18 17 16 15 14 13 12 12 11 11 11 7 6 4 5 1 3 3 2 2 2 3 3 3 3 3 4 4 5 6 5 6
21 20 19 18 16 15 14 13 12 12 12 11 10 8 8 6 6 3 3 5 4 3 3 4 4 4 4 5 5 4 6 6 3
23 22 20 19 18 17 16 15 14 13 12 11 11 9 8 9 7 5 5 6 6 5 6 6 5 6 6 5 6 7 10 12 11
Wind_Direction
242 239 240 243 244 250 262 302 302 281 295 326 11 54 75 81 50 23 63 239 291 305 143 160 212 179 172 179 240 258 279 271 128
227 225 224 228 231 231 224 244 294 278 268 320 19 68 87 91 27 51 274 272 316 268 266 275 248 229 239 207 227 260 239 255 219
206 169 208 214 220 220 227 225 237 251 250 288 17 57 98 90 88 353 350 331 290 275 270 294 305 291 263 259 246 261 271 264 268
218 195 185 160 173 194 198 205 218 224 223 44 52 80 117 88 173 205 318 327 293 272 284 284 320 296 288 276 264 262 269 268 263
235 244 239 216 206 195 180 206 223 224 214 184 101 101 104 144 205 210 298 355 16 335 256 273 286 309 305 298 279 263 270 270 258
216 219 201 196 204 228 211 201 195 204 207 171 146 143 143 172 206 224 291 51 7 323 257 217 358 314 290 286 287 283 281 279 275
159 160 162 173 176 191 212 226 223 186 184 201 170 176 198 216 219 214 180 69 36 345 296 262 248 262 276 297 299 304 293 274 285
146 155 164 169 164 147 116 102 113 155 197 196 193 208 209 216 245 250 251 78 51 26 29 287 263 267 282 290 313 308 5 72 195
160 159 153 147 142 139 153 151 110 161 171 176 196 221 236 249 262 259 253 244 100 46 353 15 73 100 167 114 173 192 183 316 306
156 154 149 147 148 144 135 129 148 144 175 196 179 206 224 246 261 268 280 285 263 142 67 48 84 110 123 80 211 268 284 334 334
151 148 148 147 144 142 145 146 149 147 132 137 153 154 136 172 195 231 253 263 315 29 136 95 85 119 120 120 292 286 309 328 331
165 160 152 143 142 139 140 143 143 131 116 122 138 149 159 168 170 187 212 246 216 116 65 93 80 94 89 77 281 306 314 322 326
170 160 148 146 145 139 133 130 129 124 112 109 107 104 114 122 127 157 165 168 158 130 79 138 187 201 218 216 64 25 358 343 331
175 165 160 157 155 148 144 134 139 130 122 118 111 101 99 99 102 104 123 155 195 196 197 172 188 200 207 219 248 327 346 340 325
183 178 175 169 162 158 150 152 146 135 137 122 112 102 94 92 93 92 92 92 94 109 200 223 219 244 259 260 112 53 23 19 24
192 188 186 182 176 170 164 160 158 151 144 130 107 89 72 53 63 82 69 60 68 64 85 213 256 255 261 251 209 129 80 32 53
199 198 196 193 189 183 177 173 167 163 164 153 135 136 119 69 29 344 341 336 325 330 339 340 315 298 305 251 180 169 104 9 24
207 205 204 204 199 194 190 188 182 173 172 171 166 163 162 176 254 343 333 331 326 316 309 294 281 268 274 290 276 229 233 33 293
212 211 209 209 206 202 199 196 197 191 182 181 191 193 175 173 183 238 290 309 289 291 293 290 287 284 273 262 262 253 281 266 297
216 216 214 214 214 211 208 204 202 205 199 196 192 194 198 202 190 187 225 275 285 297 288 284 280 277 273 266 259 250 246 257 264
Height
1518 1519 1520 1522 1524 1525 1526 1528 1528 1530 1530 1532 1533 1534 1535 1535 1535 1536 1536 1537 1537 1539 1538 1538 1540 1540 1542 1543 1544 1545 1546 1548 1548
1516 1517 1519 1521 1523 1524 1527 1527 1529 1530 1530 1532 1534 1534 1535 1536 1537 1537 1536 1537 1538 1538 1539 1540 1540 1541 1542 1543 1544 1545 1547 1548 1549
1513 1515 1517 1519 1522 1523 1525 1527 1527 1530 1530 1532 1533 1534 1535 1537 1537 1537 1536 1536 1538 1538 1539 1540 1540 1541 1542 1543 1543 1545 1546 1547 1549
1512 1513 1515 1518 1520 1521 1523 1525 1527 1528 1529 1531 1533 1534 1535 1536 1537 1536 1537 1537 1537 1537 1539 1540 1540 1540 1542 1543 1543 1544 1545 1546 1548
1510 1512 1514 1515 1517 1519 1521 1523 1524 1527 1528 1531 1532 1532 1533 1534 1537 1536 1536 1537 1537 1537 1538 1539 1540 1540 1542 1542 1542 1543 1543 1545 1546
1509 1511 1512 1514 1516 1517 1518 1520 1523 1525 1527 1528 1529 1529 1531 1533 1534 1536 1537 1536 1537 1537 1538 1539 1539 1540 1541 1541 1541 1543 1543 1544 1545
1509 1510 1511 1513 1515 1517 1518 1519 1520 1523 1525 1528 1529 1530 1531 1533 1535 1537 1535 1536 1536 1536 1537 1538 1538 1539 1540 1540 1541 1542 1543 1543 1546
1508 1509 1510 1512 1513 1515 1516 1518 1519 1521 1523 1526 1527 1529 1531 1532 1533 1535 1535 1535 1536 1536 1537 1536 1537 1537 1538 1539 1540 1541 1542 1542 1544
1507 1509 1509 1511 1512 1514 1516 1517 1519 1519 1521 1525 1527 1528 1530 1531 1532 1533 1534 1535 1536 1536 1536 1536 1536 1537 1537 1538 1539 1540 1542 1543 1543
1506 1508 1509 1511 1513 1513 1515 1517 1518 1520 1521 1522 1525 1526 1528 1530 1532 1532 1534 1534 1535 1535 1535 1536 1536 1536 1537 1537 1538 1539 1540 1541 1541
1506 1508 1509 1510 1512 1514 1516 1518 1518 1519 1521 1522 1524 1524 1526 1529 1530 1532 1533 1534 1535 1535 1535 1536 1536 1536 1537 1537 1538 1538 1538 1538 1538
1507 1508 1509 1510 1512 1514 1516 1518 1518 1520 1521 1521 1523 1524 1526 1528 1529 1532 1533 1534 1534 1534 1534 1535 1536 1537 1537 1537 1537 1537 1537 1537 1536
1506 1508 1509 1511 1512 1514 1515 1517 1518 1520 1520 1521 1523 1523 1526 1527 1528 1530 1531 1532 1532 1532 1533 1533 1534 1535 1536 1536 1536 1536 1536 1535 1534
1505 1507 1509 1511 1512 1514 1515 1516 1518 1519 1520 1521 1523 1524 1526 1526 1528 1529 1531 1532 1532 1532 1531 1532 1533 1534 1533 1534 1536 1536 1535 1534 1533
1504 1506 1508 1510 1511 1513 1514 1516 1517 1518 1520 1521 1523 1525 1526 1528 1529 1530 1531 1531 1532 1531 1531 1530 1532 1531 1531 1532 1534 1536 1534 1533 1533
1502 1504 1506 1508 1510 1511 1513 1515 1516 1517 1519 1521 1524 1525 1527 1528 1530 1531 1531 1531 1532 1531 1531 1532 1530 1530 1531 1531 1532 1533 1534 1534 1532
1500 1502 1504 1506 1508 1509 1511 1513 1515 1517 1518 1519 1522 1525 1528 1528 1529 1530 1530 1530 1531 1531 1531 1530 1531 1530 1530 1531 1531 1530 1532 1532 1531
1497 1500 1502 1504 1506 1507 1509 1511 1512 1514 1516 1518 1520 1523 1525 1526 1529 1529 1530 1530 1530 1530 1531 1531 1530 1531 1531 1530 1530 1531 1530 1530 1528
1494 1496 1498 1500 1502 1505 1507 1509 1511 1512 1514 1516 1517 1519 1520 1523 1526 1527 1528 1528 1529 1529 1529 1528 1528 1528 1528 1529 1529 1530 1529 1528 1528
1490 1492 1495 1497 1499 1502 1504 1506 1508 1509 1511 1514 1515 1517 1518 1520 1521 1522 1524 1525 1526 1527 1527 1527 1527 1526 1527 1527 1527 1527 1527 1527 1527